Concordia, KS

6:37 PM CDT on July 25, 2016 (GMT -0500)
Blosser Municipal

Weather History for KCNK - April, 2014

Change the Weather History Date:

Wednesday, April 23, 2014

  Actual Average Record
Temperature  
Mean Temperature 68 °F 56 °F  
Max Temperature 83 °F 67 °F 95 °F (1989)
Min Temperature 53 °F 44 °F 29 °F (1967)
Degree Days  
Heating Degree Days 0 10  
Month to date heating degree days 288 310  
Since 1 July heating degree days 5566 5201  
Cooling Degree Days 3 1  
Month to date cooling degree days 18 8  
Year to date cooling degree days 18 9  
Growing Degree Days 18 (Base 50)    
Moisture  
Dew Point 44 °F    
Average Humidity 46    
Maximum Humidity 61    
Minimum Humidity 30    
Precipitation  
Precipitation T in 0.08 in 0.91 in (2003)
Month to date precipitation 0.58 1.78  
Year to date precipitation 2.00 5.16  
Snow  
Snow 0.00 in 0.00 in 2.20 in (2013)
Month to date snowfall T 0.5  
Year to date snowfall 16.9 13.7  
Since 1 July snowfall 23.2 20.2  
Snow Depth 0.00 in    
Sea Level Pressure  
Sea Level Pressure 29.68 in    
Wind  
Wind Speed 21 mph (SSE)    
Max Wind Speed 35 mph    
Max Gust Speed 48 mph    
Visibility 10 miles    
Events Rain , Thunderstorm    
T = Trace of Precipitation, MM = Missing Value Source: NWS Daily Summary

Daily Weather History Graph

Daily Weather History Graph

Search for Another Location

Airport or City:

Trip Planner

Search our weather history database for the weather conditions in past years. The results will help you decide how hot, cold, wet, or windy it might be!

Date:

Astronomy

Apr. 23, 2014 Rise Set
Actual Time 6:41 AM CDT 8:16 PM CDT
Civil Twilight 6:13 AM CDT 8:45 PM CDT
Nautical Twilight 5:39 AM CDT 9:19 PM CDT
Astronomical Twilight 5:02 AM CDT 9:55 PM CDT
Moon 3:13 AM CDT (4/23) 2:27 PM CDT (4/23)
Length of Visible Light 14h 31m
Length of Day
13h 34m
Waning Crescent, 34% of the Moon is Illuminated
Apr 23
Waning Crescent
Apr 29
New
May 6
First Quarter
May 14
Full
May 21
Last Quarter

Hourly Weather History & Observations

Time (CDT) Temp. Dew Point Humidity Pressure Visibility Wind Dir Wind Speed Gust Speed Precip Events Conditions
12:55 AM 60.1 °F 33.1 °F 36% 29.88 in 9.0 mi SE 19.6 mph 25.3 mph N/A   Clear
1:55 AM 60.1 °F 33.1 °F 36% 29.87 in 10.0 mi SE 17.3 mph - N/A   Clear
2:55 AM 59.0 °F 34.0 °F 39% 29.82 in 10.0 mi SSE 19.6 mph - N/A   Scattered Clouds
3:55 AM 59.0 °F 35.1 °F 41% 29.81 in 10.0 mi South 27.6 mph 36.8 mph 0.00 in   Overcast
4:55 AM 55.0 °F 41.0 °F 59% 29.82 in 10.0 mi SSE 21.9 mph 26.5 mph 0.00 in   Overcast
5:08 AM 54.0 °F 41.0 °F 62% 29.84 in 10.0 mi SSE 17.3 mph - N/A Thunderstorm Overcast
5:22 AM 55.0 °F 41.0 °F 59% 29.84 in 10.0 mi SE 18.4 mph - N/A Thunderstorm Thunderstorm
5:37 AM 55.0 °F 39.9 °F 57% 29.84 in 10.0 mi SE 16.1 mph - N/A   Overcast
5:55 AM 55.0 °F 39.9 °F 57% 29.82 in 10.0 mi SE 13.8 mph - N/A   Overcast
6:55 AM 53.1 °F 42.1 °F 66% 29.82 in 10.0 mi ESE 17.3 mph - 0.00 in Rain Light Rain
7:55 AM 54.0 °F 41.0 °F 62% 29.82 in 10.0 mi SE 21.9 mph - 0.00 in   Overcast
8:15 AM 54.0 °F 42.1 °F 64% 29.82 in 10.0 mi SE 26.5 mph - 0.00 in Thunderstorm Mostly Cloudy
8:30 AM 55.0 °F 41.0 °F 59% 29.81 in 10.0 mi SE 24.2 mph - 0.00 in   Mostly Cloudy
8:55 AM 55.0 °F 43.0 °F 64% 29.79 in 10.0 mi SE 21.9 mph 28.8 mph 0.00 in   Mostly Cloudy
9:55 AM 57.9 °F 41.0 °F 53% 29.78 in 10.0 mi SE 23.0 mph 32.2 mph N/A   Mostly Cloudy
10:15 AM 57.0 °F 43.0 °F 59% 29.79 in 10.0 mi SE 18.4 mph 28.8 mph 0.00 in Rain , Thunderstorm Light Rain
10:30 AM 57.0 °F 42.1 °F 57% 29.78 in 10.0 mi SE 20.7 mph 29.9 mph 0.00 in   Mostly Cloudy
10:55 AM 59.0 °F 44.1 °F 58% 29.75 in 10.0 mi SE 23.0 mph 32.2 mph 0.00 in Rain Light Rain
11:55 AM 62.6 °F 46.4 °F 55% 29.73 in 10.0 mi SE 21.9 mph - N/A   Scattered Clouds
12:55 PM 69.1 °F 45.0 °F 42% 29.67 in 10.0 mi SSE 21.9 mph 31.1 mph N/A   Clear
1:55 PM 73.9 °F 50.0 °F 43% 29.62 in 10.0 mi SSE 27.6 mph 38.0 mph 0.00 in   Partly Cloudy
2:14 PM 73.9 °F 48.9 °F 41% 29.64 in 10.0 mi South 25.3 mph 47.2 mph N/A Thunderstorm Partly Cloudy
2:43 PM 75.9 °F 48.9 °F 38% 29.63 in 10.0 mi SSE 27.6 mph 38.0 mph N/A   Partly Cloudy
2:55 PM 79.0 °F 48.9 °F 35% 29.60 in 10.0 mi SSE 25.3 mph 41.4 mph N/A   Clear
3:55 PM 81.0 °F 48.9 °F 33% 29.56 in 10.0 mi SSE 25.3 mph 35.7 mph N/A   Clear
4:38 PM 81.0 °F 48.0 °F 31% 29.57 in 10.0 mi South 21.9 mph 34.5 mph N/A Thunderstorm Partly Cloudy
4:50 PM 80.6 °F 48.2 °F 32% 29.56 in 10.0 mi South 23.0 mph 34.5 mph N/A Thunderstorm Thunderstorm
4:55 PM 80.1 °F 46.9 °F 31% 29.54 in 10.0 mi South 21.9 mph 33.4 mph N/A Thunderstorm Thunderstorm
5:05 PM 79.0 °F 48.0 °F 34% 29.56 in 10.0 mi South 18.4 mph 33.4 mph 0.00 in Rain , Thunderstorm Light Rain
5:12 PM 77.0 °F 50.0 °F 39% 29.56 in 10.0 mi South 18.4 mph 28.8 mph 0.00 in Rain Light Rain
5:55 PM 80.1 °F 48.9 °F 34% 29.51 in 10.0 mi South 19.6 mph 26.5 mph 0.00 in   Mostly Cloudy
6:55 PM 80.1 °F 48.0 °F 32% 29.48 in 10.0 mi South 16.1 mph - N/A Thunderstorm Clear
7:11 PM 79.0 °F 48.0 °F 34% 29.51 in 10.0 mi SSE 18.4 mph - N/A   Clear
7:55 PM 78.1 °F 46.0 °F 32% 29.45 in 10.0 mi South 25.3 mph 34.5 mph N/A   Clear
8:55 PM 78.1 °F 44.1 °F 30% 29.49 in 10.0 mi South 23.0 mph 29.9 mph N/A   Clear
9:55 PM 75.9 °F 46.9 °F 36% 29.47 in 10.0 mi South 20.7 mph 36.8 mph N/A   Clear
10:55 PM 75.0 °F 48.0 °F 38% 29.42 in 10.0 mi South 27.6 mph 39.1 mph N/A   Clear
11:55 PM 69.1 °F 50.0 °F 51% 29.53 in 10.0 mi NNW 13.8 mph 21.9 mph N/A   Mostly Cloudy